Startpagina
METAR-TAF:

METAR-TAF

Vliegvelden :

Productieplatform

Awg-1, Nederland

breedte: 53-29-30N, lengte: 5-56-30E, hoogte: 33 m

Actueel weer

Dit bericht is 20 minuten geleden gemaakt, om 05:25 UTC
Wind 14 kt uit het oostzuidoosten
Temperatuur 5°C
Vochtigheid 60%
Druk 1033 hPa

METAR: EHMA 180525Z AUTO 11014KT //// // NCD 05/M02 Q1033 RE// W///H///

Tijdstip: 06:45 (05:45 UTC)


TAF: ontbreekt

Waarnemingen en weersverwachtingen van meer dan 4000 vliegvelden (METAR en TAF).

De beschikbare stations zijn de gele en rode punten op de kaart.

Ga met uw muis naar het station om de naam te zien.

Klik dan om waarnemingen en weersverwachtingen te zien.

kaart wijzigen: klik op de groene knoppen met een zwart kruis om in te zoomen, op de groene knop met een streepje om uit te zoomen of op de groene pijlen voor aangrenzende kaarten.


METAR-TAF: